Meteo orario Koziolek

Oggi, 7 Marzo, Domenica

Tempo Temperatura Precipitazioni Vento Pressione Umidità
00:00 -2°C° 0 mm 7 m/s 755 mm Hg 81%
01:00 -2°C° 0 mm 7 m/s 755 mm Hg 83%
02:00 -2°C° 0 mm 8 m/s 754 mm Hg 81%
03:00 -2°C° 0 mm 8 m/s 754 mm Hg 79%
04:00 -2°C° 0 mm 8 m/s 753 mm Hg 77%
05:00 -4°C° 0 mm 9 m/s 753 mm Hg 78%
06:00 -4°C° 0 mm 9 m/s 752 mm Hg 78%
07:00 -4°C° 0 mm 9 m/s 752 mm Hg 79%
08:00 -4°C° 0 mm 9 m/s 752 mm Hg 78%
09:00 -3°C° 0 mm 9 m/s 751 mm Hg 76%
10:00 -1°C° 0 mm 9 m/s 751 mm Hg 74%
11:00 -1°C° 0 mm 9 m/s 751 mm Hg 73%
12:00 -1°C° 0 mm 9 m/s 751 mm Hg 72%
13:00 -1°C° 0 mm 9 m/s 751 mm Hg 71%
14:00 -1°C° 0 mm 9 m/s 750 mm Hg 75%
15:00 -1°C° 0 mm 8 m/s 750 mm Hg 79%
16:00 -2°C° 0 mm 8 m/s 750 mm Hg 84%
17:00 -2°C° 0.3 mm 7 m/s 750 mm Hg 87%
18:00 -3°C° 0.3 mm 7 m/s 750 mm Hg 90%
19:00 -3°C° 0.3 mm 6 m/s 750 mm Hg 93%
20:00 -4°C° 0.4 mm 5 m/s 750 mm Hg 89%
21:00 -2°C° 0.4 mm 3 m/s 750 mm Hg 85%
22:00 -3°C° 0.4 mm 2 m/s 750 mm Hg 81%
23:00 -3°C° 0 mm 2 m/s 751 mm Hg 84%

Domani, 8 Marzo, Lunedi

Tempo Temperatura Precipitazioni Vento Pressione Umidità
00:00 -4°C° 0 mm 2 m/s 751 mm Hg 86%
01:00 -4°C° 0 mm 2 m/s 751 mm Hg 89%
02:00 -5°C° 0 mm 3 m/s 751 mm Hg 88%
03:00 -5°C° 0 mm 3 m/s 751 mm Hg 87%
04:00 -5°C° 0 mm 3 m/s 751 mm Hg 86%
05:00 -5°C° 0 mm 3 m/s 751 mm Hg 83%
06:00 -5°C° 0 mm 3 m/s 752 mm Hg 79%
07:00 -5°C° 0 mm 4 m/s 752 mm Hg 75%
08:00 -3°C° 0 mm 4 m/s 753 mm Hg 70%
09:00 -2°C° 0 mm 4 m/s 753 mm Hg 65%
10:00 -1°C° 0 mm 4 m/s 753 mm Hg 59%
11:00 -1°C° 0 mm 5 m/s 754 mm Hg 58%
12:00 0°C° 0 mm 5 m/s 754 mm Hg 57%
13:00 0°C° 0 mm 5 m/s 754 mm Hg 55%
14:00 0°C° 0.1 mm 4 m/s 754 mm Hg 56%
15:00 0°C° 0.1 mm 4 m/s 754 mm Hg 57%
16:00 0°C° 0.1 mm 4 m/s 754 mm Hg 58%
17:00 -1°C° 0 mm 3 m/s 754 mm Hg 65%
18:00 -2°C° 0 mm 3 m/s 754 mm Hg 71%
19:00 -3°C° 0 mm 2 m/s 755 mm Hg 78%
20:00 -3°C° 0 mm 2 m/s 755 mm Hg 79%
21:00 -3°C° 0 mm 2 m/s 755 mm Hg 80%
22:00 -3°C° 0 mm 2 m/s 755 mm Hg 81%
23:00 -3°C° 0 mm 2 m/s 755 mm Hg 81%

Dopodomani, 9 Marzo, Martedi

Tempo Temperatura Precipitazioni Vento Pressione Umidità
00:00 -1°C° 0 mm 1 m/s 755 mm Hg 81%
01:00 -1°C° 0 mm 1 m/s 755 mm Hg 81%
02:00 -1°C° 0 mm 1 m/s 755 mm Hg 82%
03:00 -1°C° 0 mm 1 m/s 755 mm Hg 82%
04:00 -1°C° 0 mm 1 m/s 755 mm Hg 82%
05:00 -1°C° 0 mm 1 m/s 755 mm Hg 81%
06:00 -1°C° 0 mm 1 m/s 755 mm Hg 80%
07:00 -2°C° 0 mm 0 m/s 755 mm Hg 80%
08:00 -1°C° 0 mm 0 m/s 756 mm Hg 74%
09:00 -1°C° 0 mm 0 m/s 756 mm Hg 69%
10:00 0°C° 0 mm 0 m/s 756 mm Hg 64%
11:00 0°C° 0 mm 0 m/s 756 mm Hg 60%
12:00 +1°C° 0 mm 0 m/s 756 mm Hg 55%
13:00 +2°C° 0 mm 0 m/s 756 mm Hg 51%
14:00 +1°C° 0 mm 0 m/s 756 mm Hg 51%
15:00 +1°C° 0 mm 0 m/s 755 mm Hg 51%
16:00 +1°C° 0 mm 0 m/s 755 mm Hg 51%
17:00 0°C° 0 mm 0 m/s 755 mm Hg 56%
18:00 -1°C° 0 mm 0 m/s 756 mm Hg 61%
19:00 -1°C° 0 mm 1 m/s 756 mm Hg 66%
20:00 -1°C° 0 mm 1 m/s 756 mm Hg 68%
21:00 -1°C° 0 mm 1 m/s 756 mm Hg 69%
22:00 -1°C° 0 mm 1 m/s 756 mm Hg 71%
23:00 -3°C° 0 mm 2 m/s 756 mm Hg 72%

10 Marzo, Mercoledi

Tempo Temperatura Precipitazioni Vento Pressione Umidità
00:00 -4°C° 0 mm 2 m/s 756 mm Hg 72%
01:00 -4°C° 0 mm 2 m/s 756 mm Hg 72%
02:00 -4°C° 0 mm 2 m/s 756 mm Hg 72%
03:00 -4°C° 0 mm 2 m/s 756 mm Hg 72%
04:00 -4°C° 0 mm 2 m/s 756 mm Hg 71%
05:00 -4°C° 0 mm 2 m/s 756 mm Hg 70%
06:00 -3°C° 0 mm 2 m/s 756 mm Hg 69%
07:00 -3°C° 0 mm 2 m/s 756 mm Hg 67%
08:00 -2°C° 0 mm 3 m/s 756 mm Hg 61%
09:00 -1°C° 0 mm 3 m/s 756 mm Hg 54%
10:00 0°C° 0 mm 4 m/s 756 mm Hg 48%
11:00 +1°C° 0 mm 4 m/s 755 mm Hg 45%
12:00 +1°C° 0 mm 4 m/s 755 mm Hg 42%
13:00 +2°C° 0 mm 5 m/s 755 mm Hg 39%
14:00 +3°C° 0 mm 4 m/s 754 mm Hg 42%
15:00 +3°C° 0 mm 4 m/s 754 mm Hg 45%
16:00 +2°C° 0 mm 3 m/s 753 mm Hg 48%
17:00 +1°C° 0 mm 3 m/s 753 mm Hg 51%
18:00 0°C° 0 mm 4 m/s 752 mm Hg 55%
19:00 -1°C° 0 mm 4 m/s 752 mm Hg 58%
20:00 -1°C° 0 mm 4 m/s 751 mm Hg 60%
21:00 -1°C° 0 mm 5 m/s 751 mm Hg 61%
22:00 -1°C° 0 mm 5 m/s 750 mm Hg 63%
23:00 -1°C° 0 mm 5 m/s 749 mm Hg 67%

11 Marzo, Giovedi

Tempo Temperatura Precipitazioni Vento Pressione Umidità
00:00 -1°C° 0 mm 5 m/s 749 mm Hg 72%
01:00 -1°C° 0 mm 5 m/s 748 mm Hg 76%
02:00 -1°C° 0 mm 5 m/s 747 mm Hg 78%
03:00 0°C° 0 mm 5 m/s 746 mm Hg 80%
04:00 0°C° 0 mm 5 m/s 745 mm Hg 82%
05:00 -1°C° 0.2 mm 6 m/s 744 mm Hg 86%
06:00 -1°C° 0.2 mm 6 m/s 743 mm Hg 90%
07:00 -1°C° 0.2 mm 7 m/s 743 mm Hg 94%
08:00 0°C° 0.4 mm 7 m/s 742 mm Hg 94%
09:00 0°C° 0.4 mm 7 m/s 741 mm Hg 94%
10:00 +2°C° 0.4 mm 7 m/s 740 mm Hg 94%
11:00 +2°C° 0.6 mm 7 m/s 740 mm Hg 94%
12:00 +3°C° 0.6 mm 7 m/s 739 mm Hg 93%
13:00 +4°C° 0.6 mm 7 m/s 738 mm Hg 93%
14:00 +4°C° 0.1 mm 7 m/s 738 mm Hg 89%
15:00 +5°C° 0.1 mm 7 m/s 737 mm Hg 85%
16:00 +6°C° 0.1 mm 7 m/s 737 mm Hg 81%
17:00 +6°C° 0.1 mm 7 m/s 736 mm Hg 81%
18:00 +6°C° 0.1 mm 7 m/s 736 mm Hg 80%
19:00 +6°C° 0.1 mm 8 m/s 735 mm Hg 79%
20:00 +6°C° 0.4 mm 8 m/s 736 mm Hg 78%
21:00 +6°C° 0.4 mm 8 m/s 736 mm Hg 78%
22:00 +5°C° 0.4 mm 8 m/s 736 mm Hg 77%
23:00 +5°C° 0 mm 8 m/s 736 mm Hg 75%

12 Marzo, Venerdi

Tempo Temperatura Precipitazioni Vento Pressione Umidità
00:00 +3°C° 0 mm 9 m/s 736 mm Hg 74%
01:00 +3°C° 0 mm 9 m/s 736 mm Hg 73%
02:00 +2°C° 0 mm 9 m/s 736 mm Hg 73%
03:00 +2°C° 0 mm 9 m/s 737 mm Hg 74%
04:00 +2°C° 0 mm 9 m/s 737 mm Hg 75%
05:00 +2°C° 0 mm 9 m/s 738 mm Hg 77%
06:00 +2°C° 0 mm 10 m/s 738 mm Hg 80%
07:00 +1°C° 0 mm 10 m/s 738 mm Hg 82%
08:00 +2°C° 0.1 mm 11 m/s 738 mm Hg 76%
09:00 +3°C° 0.1 mm 11 m/s 738 mm Hg 71%
10:00 +4°C° 0.1 mm 12 m/s 738 mm Hg 65%
11:00 +4°C° 0.1 mm 12 m/s 739 mm Hg 65%
12:00 +4°C° 0.1 mm 12 m/s 739 mm Hg 64%
13:00 +4°C° 0.1 mm 13 m/s 739 mm Hg 63%
14:00 +4°C° 0.1 mm 12 m/s 739 mm Hg 62%
15:00 +4°C° 0.1 mm 12 m/s 740 mm Hg 60%
16:00 +4°C° 0.1 mm 11 m/s 740 mm Hg 59%
17:00 +3°C° 0 mm 10 m/s 740 mm Hg 63%
18:00 +2°C° 0 mm 9 m/s 741 mm Hg 67%
19:00 +2°C° 0 mm 8 m/s 742 mm Hg 71%
20:00 +1°C° 0 mm 8 m/s 742 mm Hg 72%
21:00 +2°C° 0 mm 7 m/s 743 mm Hg 74%
22:00 0°C° 0 mm 7 m/s 743 mm Hg 76%
23:00 0°C° 0 mm 7 m/s 743 mm Hg 76%
Mostrare altro